Find Starlink 30355

NORAD ID: 57777 Int'l Des: 2023-134 Owner: SPXS Country: US Constellation: starlink operational
LEOCIRCULAR

現在のビュー

3D地球を読み込み中...

About Starlink 30355

Starlink 30355 (NORAD 57777) is a starlink constellation satellite (v2 mini) launched Sep 4, 2023 by SPXS of US. It operates in LEO, CIRCULAR orbit with a mass of 730.00 kg.

次回通過

Passes for default location (London). Set your location on the main map for personalized predictions.

高度履歴

Loading altitude history...

軌道要素

1 57777U 23134G 26236.32805244 -.00000056 00000-0 75013-5 0 9996
2 57777 43.0050 331.2453 0001680 264.2394 95.8266 15.27584019165092
Epoch: Aug 24, 2026 • Age: 12 hours

現在のステータス

高度 486.8 km
遠地点 / 近地点 N/A
速度 7.62 km/s
衛星直下点 -19.40°S, 28.62°E
打ち上げ日 Sep 4, 2023
運用期間 2.9 years
タイプ internet

技術仕様

分類 Payload
質量 730.00 kg
乾燥質量 700.00 kg
総質量 730.00 kg
長さ 0.30 m
直径 4.10 m
スパン 29.00 m
形状 Box + pan
製造者 SPXS
バスタイプ Starlink V2M
フェーズステータス In Orbit
所有者/国 SPXS/US

Most Searched